Regional Weather Roundup
Issued by NWS

Home | Current Version | Previous Version | Text Only | Print | Product List | Glossary Off
Versions: 1 2 3 4 5 6 7 8 9 10 11 12 13 14 15 16 17 18 19 20 21 22 23 24 25 26 27 28 29 30 31 32 33 34 35 36 37 38 39 40 41 42 43 44 45 46 47 48 49 50

000
ASUS45 KBOU 230710
RWRCO

WEATHER ROUNDUP FOR COLORADO
NATIONAL WEATHER SERVICE DENVER/BOULDER CO
1200 AM MST THU NOV 23 2017

NOTE: "FAIR" INDICATES FEW OR NO CLOUDS BELOW 12000 FEET WITH NO
SIGNIFICANT WEATHER AND/OR OBSTRUCTIONS TO VISIBILITY.

COZ001>005-013-030-031-230800-
...NORTHWEST COLORADO...

CITY           SKY/WX    TMP DP  RH WIND       PRES   REMARKS
CRAIG          FAIR      30  27  88 CALM      30.42F
HAYDEN         FAIR      37  33  85 SE9       30.44S
MEEKER         FAIR      32  30  92 N5        30.45S WCI  27
RABBIT EARS PA CLOUDY   N/A N/A N/A W5        30.53F FOG
STEAMBOAT SPGS CLOUDY    35  34  99 CALM      30.44S
WALDEN         FAIR      32  28  86 E3        30.45F
$$

COZ006>008-011-230800-
...WEST CENTRAL VALLEYS...

CITY           SKY/WX    TMP DP  RH WIND       PRES   REMARKS
GRAND JUNCTION FAIR      41  32  70 SE6       30.41R
MONTROSE       FAIR      35  30  82 SE7       30.44F WCI  29
EAGLE          FAIR      29  27  92 NE3       30.50S
RIFLE          FAIR      35  32  88 CALM      30.45R
DELTA          FAIR      39  29  68 CALM      30.43S
NUCLA          FAIR      39  30  70 E10       30.45F
$$

COZ017>023-064>068-230800-
...SOUTHWEST COLORADO...

CITY           SKY/WX    TMP DP  RH WIND       PRES   REMARKS
DURANGO        FAIR      30  23  75 E7        30.39F WCI  23
CORTEZ         FAIR      33  26  75 E7        30.38S WCI  27
PAGOSA SPRINGS FAIR      36  26  66 CALM      30.43S
TELLURIDE      FAIR      37  29  71 CALM      30.52S
WOLF CREEK PAS FAIR      36  18  48 N7        30.64F
$$

COZ009-010-012-014-032>034-037-058>063-230800-
...CENTRAL COLORADO...

CITY           SKY/WX    TMP DP  RH WIND       PRES   REMARKS
ASPEN          FAIR      36  31  82 SW7       30.47F
BUENA VISTA    FAIR      44  32  63 NW16G23   30.43F
COPPER MTN     FOG       34  32  93 MISG      30.59F VSB 1/2
BERTHOUD PASS  CLOUDY    27  16  63 NW26G35   30.57F WCI  11
COTTONWOOD PAS FAIR      43  34  70 NW13G21   30.51R
GUNNISON       FAIR      26  25  96 CALM      30.50F
KREMMLING      MOCLDY    37  36  93 NE3       30.47F
LEADVILLE      CLOUDY    34  29  82 NW3       30.52S
MONARCH PASS   FAIR      32  27  80 NW10G16   30.69S WCI  24
SALIDA         FAIR      42  33  70 W3        30.50S
SUNLIGHT       FAIR      32  30  93 W3        30.62S
WILKERSON PASS FAIR      34  27  75 N12G22    30.55F WCI  25
$$

COZ069>075-230800-
...SAN LUIS VALLEY/SANGRE DE CRISTO MOUNTAINS...

CITY           SKY/WX    TMP DP  RH WIND       PRES   REMARKS
ALAMOSA        FAIR      30  24  78 CALM      30.42S
DEL NORTE      FAIR      39  27  62 N5        30.44F
LA VETA PASS   FAIR      34  27  75 SW14        N/A  WCI  24
SAGUACHE       FAIR      41  32  70 NW14      30.44F
$$

COZ035-036-038>040-230800-
...NORTHERN COLORADO FRONT RANGE...

CITY           SKY/WX    TMP DP  RH WIND       PRES   REMARKS
DENVER INTL AP FAIR      47  34  60 SW9       30.25F
DMNS CITY PARK   N/A     47  33  59 SE7G13    30.26S
AURORA         PTCLDY    46  34  62 SW8       30.27F
FRONT RANGE AP FAIR      46  36  69 S9G17     30.27S
ERIE MUNI ARPT FAIR      43  34  71 S5        30.29F
BOULDER MUN AP FAIR      52  34  50 SW5       30.24F
CENTENNIAL     FAIR      47  34  60 SW7       30.28S
BROOMFIELD     FAIR      57  34  41 W18       30.26F
FORT COLLINS   FAIR      42  35  76 SE3       30.24S
LONGMONT       FAIR      41  34  76 CALM      30.26S
$$

COZ041-046-047-076>085-087-088-230800-
...PIKES PEAK/PALMER DIVIDE AND SOUTHERN FOOTHILLS...

CITY           SKY/WX    TMP DP  RH WIND       PRES   REMARKS
COLO. SPRINGS  FAIR      44  31  60 NW6       30.31F
A. F. ACADEMY  FAIR      35  29  79 N9        30.32S WCI  28
SCHRIEVER AFB  FAIR      49  31  48 N8        30.31S
CHEYENNE MTN   FAIR      49  30  48 NW3       30.28F
ELLICOTT         N/A    N/A N/A N/A CALM      30.29F
FALCON         FAIR      39  30  70 NW6       30.34S
FORT CARSON    FAIR      43  31  62 NW7       30.28S
LIMON          FAIR      33  30  88 NW9       30.26F WCI  25
MONUMENT HILL  FAIR      37  30  75 W9        30.35S
CANON CITY     FAIR      54  34  47 W8        30.30R
WALSENBURG     FAIR      52  32  46 W13       30.31S
TRINIDAD       FAIR      42  29  59 W12       30.30R
$$

COZ042>045-048>051-090-091-230800-
...NORTHEAST COLORADO...

CITY           SKY/WX    TMP DP  RH WIND       PRES   REMARKS
GREELEY ARPT   FAIR      36  31  82 CALM      30.24S
AKRON          FAIR      46  36  68 W8        30.22S
BURLINGTON     FAIR      43  36  76 NW10      30.20S
WRAY           NOT AVBL
YUMA           FAIR      43  36  75 W10       30.19S
STERLING       FAIR      46  37  71 NW7       30.18F
HOLYOKE        FAIR      48  37  66 NW10      30.17S
FORT MORGAN    FAIR      55  35  47 NW17      30.23R
$$

COZ086-089-092>099-230800-
...SOUTHEAST COLORADO...

CITY           SKY/WX    TMP DP  RH WIND       PRES   REMARKS
PUEBLO         FAIR      38  28  67 CALM      30.25S
LA JUNTA       FAIR      41  29  62 W10       30.23R
LAMAR          FAIR      33  24  69 SW8       30.19S WCI  26
SPRINGFIELD      N/A     39  28  64 W6        30.21S
$$



USA.gov is the U.S. government's official web portal to all federal, state and local government web resources and services.